Wind_Speed
21 19 18 17 16 13 13 12 13 14 14 14 12 11 10 9 9 9 8 8 8 8 8 8 9 9 10 9 9 9 9 9 9 10 9 9 8 9 9 10 11 12 13 13 14 15 14 14 14 14 14 16 16 16 15 14 13 14 17 19 20 19 18 18 17 17 17 18 19 18 18 18 18 17 17 17 16 16 17 17 17 18 18 17 16
22 20 18 17 16 14 13 12 12 12 12 12 11 11 10 10 10 9 8 8 8 8 8 8 8 9 10 9 9 9 9 9 9 9 9 9 9 8 9 9 11 12 13 13 14 14 14 14 14 14 14 15 16 16 15 14 13 16 20 21 20 19 18 17 16 16 18 18 18 18 18 18 18 16 16 16 16 16 16 16 16 17 17 16 16
22 20 18 18 16 15 13 12 11 11 11 10 11 11 11 10 10 9 8 7 7 8 8 7 8 8 8 9 8 8 8 9 9 10 10 10 9 8 8 9 10 11 13 13 13 13 13 14 14 14 14 15 15 17 16 15 16 19 21 21 20 19 18 16 16 16 17 18 18 18 18 18 17 16 15 16 16 15 15 15 15 16 16 15 15
21 20 19 18 17 16 14 12 11 11 11 10 10 11 10 10 9 9 7 6 6 6 6 6 6 7 7 7 7 6 7 8 9 10 10 10 9 8 9 9 10 11 12 12 12 12 12 14 14 14 15 15 16 17 18 18 18 20 20 19 19 18 16 15 16 16 17 17 17 17 18 17 17 16 15 15 15 14 14 14 14 14 13 13 13
21 19 19 18 18 16 14 11 10 10 10 10 10 10 9 9 8 8 7 6 5 5 5 5 5 5 6 7 7 7 7 7 8 9 9 10 9 8 9 9 9 11 12 11 11 12 12 13 14 14 15 16 17 17 18 19 18 18 18 17 17 16 15 15 16 17 17 16 16 17 17 17 17 16 15 14 14 13 12 12 12 12 12 12 12
21 19 19 18 17 15 13 10 9 10 10 10 10 9 8 8 7 7 6 5 5 5 5 5 6 6 6 7 7 7 7 7 8 8 9 9 8 9 9 9 10 11 12 12 11 11 12 12 13 14 15 16 17 18 19 19 18 17 16 16 16 15 16 16 16 16 16 15 16 17 17 16 16 15 14 13 13 12 10 9 9 10 11 11 11
20 20 19 18 16 14 12 10 9 10 9 9 8 7 7 6 6 5 4 4 4 4 4 5 6 7 7 7 8 8 8 7 8 8 9 8 8 9 9 9 10 11 12 12 12 11 12 12 13 14 15 16 17 18 19 19 19 17 16 16 15 15 16 16 16 15 15 14 14 15 16 15 14 14 13 13 13 11 9 9 9 10 10 10 11
21 19 19 18 15 14 12 11 10 10 9 7 7 6 5 5 5 4 3 3 3 4 5 5 5 6 7 7 8 9 8 7 7 8 9 10 9 9 9 10 11 12 11 12 12 12 13 13 13 13 15 17 17 18 18 18 18 17 15 15 15 15 15 15 15 14 14 13 13 13 14 14 13 13 13 12 11 10 9 10 11 11 10 10 11
21 19 19 18 16 14 12 11 11 10 8 7 6 5 5 4 4 3 3 3 4 4 5 5 6 7 7 8 8 9 9 8 8 9 9 10 10 10 10 11 12 12 12 12 12 12 13 13 13 14 15 17 18 18 18 18 17 16 14 14 15 15 15 15 15 14 13 13 13 13 13 13 12 13 12 10 10 10 10 12 13 12 11 10 11
21 20 19 17 16 13 11 11 10 9 8 7 7 5 4 4 3 4 4 5 5 4 5 6 7 8 7 7 8 9 9 8 9 9 10 11 10 11 11 12 13 12 13 13 12 12 13 13 13 14 15 16 17 17 17 17 16 14 13 13 14 14 14 14 14 14 13 13 13 13 13 12 12 12 11 10 10 9 10 12 12 12 12 11 11
21 20 18 17 15 11 11 11 10 8 8 7 6 5 4 5 4 4 5 5 5 4 5 6 8 8 7 7 9 10 9 9 10 10 11 11 11 12 12 13 13 12 13 13 12 12 13 13 13 14 16 16 16 16 16 15 15 14 13 12 13 14 13 13 13 13 13 13 13 13 12 11 12 12 10 9 8 9 10 11 12 12 11 11 11
21 20 18 16 13 11 12 11 10 8 8 7 6 5 5 5 5 5 5 6 6 5 6 7 8 9 8 8 9 10 10 9 9 10 11 11 11 12 12 13 13 12 13 13 12 13 13 14 14 14 15 15 15 16 15 14 14 13 12 11 12 12 12 12 12 12 12 12 12 12 11 11 11 10 8 7 7 8 10 11 12 12 11 10 11
21 19 18 16 13 12 12 11 10 9 8 7 6 6 6 6 5 6 6 7 7 7 8 8 9 9 9 9 9 10 10 10 10 11 11 11 10 11 12 13 13 12 12 13 13 13 14 16 16 15 15 15 15 15 14 13 12 11 11 11 11 12 12 12 11 11 11 11 10 10 10 10 10 8 7 6 7 8 10 11 11 11 10 10 11
21 20 17 15 14 13 12 10 9 8 8 7 7 7 7 6 6 7 8 8 8 8 9 9 9 9 9 9 9 10 10 11 12 12 12 12 12 12 12 12 12 12 13 13 14 14 15 17 17 16 16 15 15 15 14 13 12 11 11 11 11 11 11 11 10 10 9 9 8 8 8 8 8 7 6 6 7 9 10 10 10 10 10 10 11
20 19 17 15 15 14 12 10 9 8 7 7 7 7 7 7 7 8 8 9 9 9 9 10 10 9 9 9 10 10 10 11 12 13 13 13 13 13 12 12 13 13 14 14 15 16 17 17 16 16 15 16 16 15 14 13 12 12 11 11 11 11 10 10 9 9 8 7 7 7 7 8 8 7 6 7 8 9 9 9 9 9 9 10 10
19 18 18 16 15 14 12 11 10 8 8 8 8 8 7 7 8 8 9 9 9 9 10 11 10 10 9 9 10 10 10 11 11 13 14 14 14 13 13 13 14 14 15 15 16 18 18 16 15 15 15 15 15 15 14 13 12 12 12 12 12 11 10 9 9 8 8 7 7 7 8 9 8 8 7 7 8 9 9 8 8 8 8 8 9
19 18 17 15 15 15 13 12 10 9 9 8 8 8 8 8 8 8 9 10 10 10 10 11 10 9 9 9 9 10 11 11 11 13 14 14 14 14 14 14 15 16 16 16 17 18 18 17 16 15 15 14 14 14 14 13 12 12 12 13 12 11 11 10 9 9 9 8 8 8 9 9 9 8 7 7 8 8 8 7 7 8 8 8 8
19 17 16 15 15 15 13 12 11 10 10 10 10 9 8 8 9 9 10 10 10 10 10 10 10 9 9 9 10 11 11 11 12 13 14 14 14 15 15 16 16 16 17 18 18 18 17 17 16 14 14 14 14 14 13 12 12 13 12 12 11 11 10 9 9 9 9 9 8 9 9 9 9 8 8 8 8 8 7 7 7 7 7 8 7
19 17 16 15 15 15 13 12 11 11 10 10 11 10 10 10 10 11 11 10 10 10 9 10 10 10 10 11 11 12 13 13 13 14 14 15 15 16 16 16 17 17 18 18 18 18 17 16 15 14 14 14 14 13 12 12 12 12 11 10 10 9 9 8 8 8 8 8 7 8 8 9 8 8 8 8 8 7 7 7 7 7 7 8 7
18 16 15 15 15 15 13 12 12 11 11 11 11 12 11 11 11 12 12 12 12 11 10 9 10 10 11 11 12 13 14 15 15 14 15 15 16 16 17 17 17 18 18 17 17 17 17 16 15 14 14 14 13 12 11 11 11 11 11 9 8 8 7 7 7 7 7 7 6 6 7 7 8 8 8 7 7 7 7 7 7 7 7 7 6
18 16 15 15 15 14 13 13 13 12 12 12 12 12 12 11 12 13 13 12 13 12 11 10 9 10 11 12 13 14 15 16 16 16 16 16 15 16 17 17 18 18 17 17 17 17 16 15 14 14 13 13 12 12 11 11 11 11 10 8 7 7 6 6 6 6 6 6 6 6 6 6 7 7 7 6 6 6 7 7 6 6 6 6 6
19 17 16 15 15 14 13 13 13 13 13 13 13 12 12 12 12 13 13 13 13 12 11 10 9 10 11 12 13 14 15 16 17 17 17 17 16 16 17 17 17 17 17 17 17 16 15 14 14 13 12 12 12 11 11 10 10 9 8 7 6 7 6 6 5 5 5 5 5 5 5 6 6 6 5 5 6 6 7 7 6 6 6 6 6
20 19 17 16 15 15 14 13 14 13 13 13 13 13 12 12 12 12 12 12 12 11 11 10 9 10 11 13 14 15 16 17 17 18 18 18 17 16 17 17 17 16 16 16 16 15 15 15 15 13 12 12 11 10 9 9 9 9 9 8 7 6 6 5 5 5 5 5 5 5 5 6 5 5 5 5 6 6 7 7 7 6 6 6 6
21 19 18 17 16 15 14 14 14 14 13 13 13 13 13 12 12 12 12 12 12 11 10 10 10 11 13 14 14 16 17 18 17 17 17 18 18 17 17 17 16 16 16 17 17 17 17 17 15 13 12 11 10 9 8 9 10 10 10 9 7 6 5 5 4 4 4 4 4 4 5 5 5 5 5 5 6 6 7 7 7 7 6 6 6
20 19 19 17 16 15 14 15 14 14 13 12 14 13 13 13 13 13 12 12 12 11 11 11 11 12 13 14 15 16 17 17 17 16 16 17 17 17 17 17 18 17 17 18 18 19 18 17 15 13 11 10 9 9 8 9 10 11 10 9 7 6 6 5 4 3 4 4 4 4 4 5 5 5 6 6 6 6 6 7 7 6 6 6 6
20 19 18 17 16 15 15 15 15 14 12 12 13 13 13 13 13 13 13 13 13 12 12 13 13 13 13 15 15 16 17 17 17 17 17 17 17 17 18 19 19 19 19 19 19 18 17 15 13 12 10 9 8 8 7 7 9 10 10 10 7 6 5 4 3 3 3 4 3 3 4 5 5 5 6 6 6 6 6 6 6 6 6 6 6
20 18 17 16 16 16 15 15 15 14 13 13 13 13 14 13 13 13 13 13 13 12 13 14 14 14 14 15 15 15 17 17 17 17 17 17 18 19 20 20 20 20 20 19 18 17 15 13 12 11 10 9 7 6 5 5 7 9 10 10 9 7 6 5 4 3 3 3 3 3 4 4 5 6 7 6 5 5 5 6 6 5 5 6 6
19 17 16 16 16 16 16 15 15 14 14 14 13 14 15 15 15 14 13 13 13 13 12 13 13 14 14 15 15 16 17 17 17 18 18 18 18 19 20 20 20 19 19 17 16 14 13 12 11 10 9 7 6 5 4 4 6 8 9 9 9 9 9 7 6 4 3 3 3 3 4 5 6 6 6 5 5 5 5 5 5 5 5 6 7
18 17 16 17 16 16 16 16 16 15 14 14 14 15 16 16 16 15 14 14 14 13 13 13 13 14 14 15 16 17 17 17 18 18 19 19 19 19 19 19 18 18 16 14 14 13 11 11 9 8 7 7 7 6 5 6 7 9 9 9 9 10 11 10 9 6 5 5 5 5 5 5 6 6 6 5 5 5 5 6 5 6 6 8 9
18 16 16 16 16 17 17 17 16 15 15 15 15 16 16 17 17 16 14 14 14 14 14 14 14 15 15 16 17 17 17 17 18 18 18 18 18 18 18 17 16 15 14 13 12 12 11 10 9 9 9 9 8 8 7 7 8 9 10 9 10 11 12 11 10 8 7 6 6 6 6 6 6 6 6 6 6 6 6 6 6 7 7 9 9
17 16 16 16 17 18 18 18 16 16 16 16 16 16 16 16 16 16 15 14 15 16 15 15 16 17 17 17 16 16 16 16 16 16 17 17 17 16 15 15 14 13 12 12 11 11 11 11 10 10 9 8 7 7 7 7 7 8 9 9 9 9 11 11 10 8 7 7 6 7 7 7 7 6 6 6 6 6 6 6 7 8 8 9 9
17 16 16 17 18 18 18 19 17 16 16 17 17 16 15 15 15 16 15 15 15 15 15 15 16 17 17 16 14 14 13 14 14 14 15 15 14 13 12 12 12 12 11 11 11 11 10 10 9 9 8 6 5 5 5 6 6 6 7 7 8 8 8 9 9 8 7 6 7 7 7 8 7 6 5 6 6 7 7 7 8 9 9 10 10
17 15 16 19 19 19 19 19 18 17 16 17 17 16 15 14 15 15 15 15 15 14 14 14 14 15 15 14 13 12 12 12 13 13 13 13 12 11 11 12 13 12 12 12 11 10 8 7 6 6 5 5 4 5 5 5 5 5 5 5 6 7 6 5 7 8 8 7 7 6 7 7 7 7 6 7 7 8 8 9 9 10 10 11 10
17 16 17 20 20 20 20 19 19 17 16 16 17 16 15 15 14 14 14 14 14 13 13 12 13 13 13 13 13 12 11 11 12 13 12 12 11 11 12 13 14 13 13 12 11 9 7 5 5 4 5 4 4 5 5 4 4 4 4 4 4 6 6 4 5 7 8 7 6 6 6 6 7 8 8 8 8 8 9 9 10 10 11 11 11
18 18 19 20 20 20 20 20 19 18 17 16 16 16 16 15 14 14 14 14 13 13 12 12 12 12 12 12 12 12 11 11 12 12 12 11 11 11 11 12 13 13 12 11 10 9 7 6 6 5 5 4 4 4 4 3 3 4 4 4 4 5 6 5 5 6 7 5 4 5 6 7 9 10 10 9 9 9 9 10 10 10 10 10 10
19 19 21 20 20 21 21 20 20 19 18 16 16 15 16 15 14 14 14 13 12 11 11 11 12 12 11 11 12 12 11 11 11 11 10 10 9 9 10 10 11 11 11 11 10 9 8 7 6 5 4 3 3 3 3 1 1 3 4 4 5 5 6 7 6 5 5 5 4 5 6 7 9 10 10 10 9 8 9 9 9 9 9 10 11
19 20 22 21 21 21 21 21 21 20 18 18 17 16 16 15 14 14 13 12 12 11 10 10 10 11 10 10 10 10 10 10 10 9 8 8 8 8 8 8 10 10 10 11 10 10 9 7 5 3 3 3 3 3 3 1 1 1 3 4 5 6 7 7 5 4 5 5 5 6 5 5 7 8 9 9 9 8 8 9 9 9 9 10 11
18 20 22 21 22 21 21 21 20 20 20 19 18 17 16 14 13 12 12 11 11 11 12 11 9 9 9 9 9 9 9 9 10 9 8 7 7 7 8 8 8 9 10 11 11 10 9 8 5 3 2 2 2 2 1 0 0 1 2 4 5 7 7 5 3 3 4 4 4 5 4 4 5 7 8 9 9 8 7 8 9 9 9 10 10
18 21 21 21 22 21 21 21 20 20 21 20 18 18 17 15 14 12 12 11 11 12 12 11 9 8 9 9 9 8 8 9 9 8 8 7 7 7 8 8 7 8 9 10 10 10 9 8 6 4 3 2 2 2 2 1 1 2 3 3 5 6 6 3 2 2 3 3 3 3 3 4 4 5 7 8 9 8 8 8 8 8 9 10 10
18 20 22 21 22 22 21 21 20 21 21 21 20 20 19 17 15 14 13 12 11 11 11 11 9 8 9 10 10 9 8 9 8 8 8 7 6 7 8 8 8 8 8 9 10 10 10 8 7 6 5 4 3 2 2 2 2 3 3 4 5 5 3 1 1 1 1 1 2 2 3 4 5 5 6 7 8 9 8 8 8 8 9 10 10
19 21 21 22 22 22 21 20 20 21 22 22 21 21 21 18 15 15 14 12 11 10 10 11 10 9 9 10 10 10 9 8 8 8 7 7 7 7 8 9 8 8 7 8 10 11 10 9 8 7 6 5 4 2 1 2 2 3 4 4 3 1 0 1 1 1 0 0 0 2 3 5 6 6 7 8 9 10 10 9 8 9 9 10 11
21 22 21 21 22 21 21 20 20 21 22 22 20 19 19 16 13 12 12 11 10 9 9 9 10 9 10 9 9 10 9 8 8 8 8 7 8 8 9 9 8 7 7 8 8 10 10 8 8 8 7 6 5 3 2 2 2 4 4 3 2 2 1 2 2 1 1 1 1 1 3 5 6 7 8 9 10 12 12 11 9 9 8 9 12
21 22 21 21 21 20 21 22 21 21 22 22 20 18 16 14 10 9 10 10 9 9 7 7 9 9 10 10 10 10 10 8 8 9 8 8 9 9 9 9 9 7 7 8 8 9 9 8 9 8 7 6 5 3 1 0 1 2 3 4 4 4 5 5 4 4 4 3 2 1 3 4 6 6 8 9 10 12 13 12 11 10 9 10 12
23 23 23 22 21 19 20 22 21 21 22 21 19 16 15 13 10 8 8 8 8 9 9 9 9 9 9 10 10 10 10 10 10 10 9 9 10 10 9 9 9 8 8 9 9 9 9 9 9 8 7 6 4 4 2 1 1 1 3 5 6 6 8 9 6 4 5 5 3 2 2 3 4 5 6 8 8 9 10 12 12 12 12 12 13
26 24 23 22 22 20 20 21 21 22 22 21 20 17 16 15 13 12 11 10 10 11 12 12 11 10 10 10 10 11 11 11 11 11 10 10 10 10 10 10 10 9 9 9 9 10 11 10 10 9 8 6 5 4 2 1 0 0 3 5 5 6 9 12 9 5 5 5 5 4 2 3 5 5 5 6 6 7 7 9 10 12 13 13 13
27 24 22 21 21 21 20 20 21 22 23 22 21 19 18 17 17 16 15 14 13 13 12 12 11 9 9 10 10 11 11 11 11 11 11 10 10 10 10 10 11 10 9 9 8 10 11 10 10 10 8 6 5 4 2 0 0 1 3 4 5 7 9 12 11 9 7 5 4 4 2 4 4 5 5 4 5 5 6 7 8 11 13 13 14
28 24 23 22 21 22 21 20 21 22 24 23 22 21 20 19 18 18 16 15 13 11 10 10 9 7 8 10 11 12 12 12 12 11 11 11 11 10 10 11 11 10 10 9 9 9 10 10 10 11 9 7 6 4 2 2 2 3 3 3 5 6 8 10 11 11 9 7 4 2 2 3 3 4 5 4 4 5 5 6 8 10 13 13 13
28 26 24 23 22 23 22 20 20 22 24 25 24 23 22 20 19 18 16 14 11 9 8 9 9 9 10 10 10 12 13 13 12 12 11 11 11 10 11 11 10 11 11 10 10 10 10 10 10 11 10 8 7 5 3 3 3 3 3 3 3 5 6 7 9 10 9 10 6 3 2 3 3 3 4 5 5 5 4 5 7 10 12 13 13
29 26 24 22 21 22 23 21 20 20 22 25 26 24 22 21 19 18 17 14 10 8 8 9 10 10 11 10 10 12 13 13 13 12 12 11 11 10 11 12 11 11 10 10 11 11 11 10 10 11 11 9 8 6 4 3 2 3 3 3 2 3 3 3 6 7 7 9 8 6 5 4 3 2 4 6 6 5 4 4 7 9 11 13 13
30 27 23 21 21 22 23 22 21 20 20 23 25 25 23 22 20 19 17 14 11 10 10 11 11 11 11 11 10 11 12 13 13 12 12 11 11 11 11 11 11 11 11 11 12 12 11 10 9 11 11 9 8 7 6 4 3 3 4 3 2 1 1 1 4 5 6 7 8 9 7 5 3 1 3 4 4 4 4 5 8 9 11 13 13
31 28 26 23 21 21 22 22 22 21 20 21 24 25 24 22 21 19 18 15 13 12 13 13 13 12 11 11 10 11 12 12 12 12 12 11 11 11 12 11 11 12 12 12 12 12 11 10 10 11 11 10 9 8 7 6 4 4 5 5 3 2 2 4 6 6 6 6 7 10 6 3 2 0 1 1 2 3 4 6 8 8 10 12 13
Wind_Direction
153 148 144 137 133 131 129 125 121 120 119 122 127 131 128 124 122 117 115 115 120 124 129 131 129 127 127 130 136 138 134 135 136 135 136 138 137 136 136 130 127 130 130 126 123 120 121 121 121 121 121 122 122 123 120 119 115 117 125 124 124 123 120 120 119 113 109 107 106 105 103 101 98 98 100 101 100 98 97 98 98 98 96 93 92
152 148 146 138 134 131 127 123 121 123 122 123 125 126 123 124 121 116 115 115 122 127 130 130 128 127 126 128 131 131 127 129 136 142 144 144 146 149 146 137 135 136 133 127 123 122 122 122 123 123 124 126 124 123 117 112 112 115 124 125 123 122 120 120 117 111 110 109 107 106 101 97 96 98 98 98 97 97 95 96 97 96 95 94 92
152 150 147 139 134 131 128 126 128 129 122 121 122 124 122 123 120 117 117 116 126 132 135 136 136 135 132 134 133 131 130 129 128 139 147 148 149 153 149 144 144 141 136 130 127 126 126 126 125 126 127 128 125 122 114 106 107 115 124 126 122 120 120 118 114 112 112 111 110 107 103 100 100 99 97 95 96 97 96 95 94 93 94 94 92
153 149 147 142 137 135 132 129 128 125 120 124 125 125 124 124 126 126 128 129 133 133 135 140 144 140 137 136 132 137 142 137 131 137 145 147 148 149 148 147 148 142 138 134 131 130 131 130 128 130 131 130 129 124 115 106 106 114 121 121 119 119 119 116 115 117 114 111 112 110 106 105 105 102 98 96 95 95 94 93 92 92 94 93 91
152 149 149 145 142 140 135 128 124 124 123 127 125 125 127 131 136 135 136 137 137 136 141 146 149 146 146 140 137 148 149 147 145 146 147 148 150 146 146 150 148 143 139 138 136 133 134 130 127 131 131 131 131 127 117 111 112 117 120 120 119 118 115 114 117 117 113 111 111 109 107 107 106 103 100 98 94 91 90 92 95 97 96 95 93
153 150 150 147 146 144 136 128 122 124 123 126 125 125 132 137 137 133 133 136 140 149 159 161 165 161 159 152 147 155 154 156 156 158 157 152 152 146 147 151 147 145 144 142 142 138 134 130 128 130 131 130 131 128 120 115 116 121 125 125 123 118 113 113 115 113 112 112 111 110 108 107 104 101 100 98 92 87 87 93 105 106 101 97 94
155 151 151 150 150 147 136 129 125 122 120 124 124 130 138 139 134 130 133 138 154 168 178 181 176 162 156 158 154 156 158 157 157 163 160 150 150 150 152 152 148 147 147 146 145 139 135 133 129 130 130 129 131 127 120 118 118 121 127 127 125 120 116 112 112 111 112 112 111 111 109 106 103 101 99 94 88 83 79 86 104 110 103 97 93
156 153 151 151 152 146 136 133 128 123 122 125 129 140 144 140 136 136 142 153 179 187 192 186 173 155 149 158 154 151 155 154 156 163 157 148 150 154 154 151 150 150 149 147 145 138 133 133 130 130 130 128 129 126 123 123 119 118 124 127 126 121 117 114 113 113 113 113 112 111 107 105 102 100 96 89 83 76 71 83 98 103 102 96 91
156 153 152 152 151 143 137 134 128 128 132 137 141 145 143 135 131 138 154 166 178 180 179 169 157 149 153 163 158 149 153 158 159 162 158 151 151 155 155 149 148 151 150 147 144 138 133 133 132 130 128 128 129 128 129 126 119 115 119 124 127 125 121 119 118 116 116 115 113 111 106 104 100 95 91 84 78 70 71 86 95 96 97 93 89
156 153 154 153 147 140 136 132 129 137 143 143 141 137 136 129 130 143 154 162 167 167 160 151 146 146 156 161 152 150 154 158 159 160 158 151 151 156 157 149 146 148 147 144 143 137 135 134 131 129 126 126 128 128 128 123 117 115 116 118 123 128 127 125 121 115 113 113 113 110 105 104 100 94 88 83 77 69 76 89 93 94 93 90 86
157 156 156 151 143 140 137 133 134 146 145 138 133 130 135 135 137 141 147 154 155 154 145 137 137 141 150 146 142 150 153 152 154 156 152 147 148 152 152 148 146 147 143 142 140 134 135 133 128 128 126 125 126 126 125 122 119 118 116 114 117 123 126 124 120 114 111 110 110 109 108 106 99 93 89 85 75 71 83 93 94 93 91 88 85
158 157 156 147 142 145 141 137 141 148 144 136 133 136 138 137 135 133 137 140 144 144 136 132 132 137 143 140 139 146 150 148 148 150 147 146 147 147 147 147 149 147 142 142 138 135 135 131 128 127 125 125 126 125 124 122 122 118 113 111 112 116 120 120 116 113 111 109 108 108 111 107 99 95 91 83 74 76 89 94 92 90 87 87 82
156 157 155 147 149 150 142 141 146 147 142 138 137 135 129 127 124 125 130 132 139 140 134 131 129 133 139 139 138 140 144 146 145 147 147 147 145 145 148 148 150 147 143 140 135 137 136 132 130 127 125 126 125 123 122 122 120 112 106 106 109 113 116 116 115 114 111 109 110 113 113 107 102 98 92 82 77 85 93 92 89 88 88 86 79
156 158 156 154 154 146 141 144 147 144 140 137 132 127 124 123 120 124 127 130 135 134 132 129 127 132 137 137 137 137 139 142 143 146 147 148 145 144 147 148 148 147 144 139 134 136 136 133 131 130 130 129 127 124 123 123 118 108 102 101 103 107 110 112 113 113 111 112 115 117 112 105 102 97 92 85 85 91 93 90 86 86 86 82 77
160 160 159 161 152 142 145 146 143 142 138 134 129 125 123 124 125 126 129 131 131 131 129 126 129 135 138 137 135 134 137 141 141 143 144 146 146 145 146 146 146 145 143 138 134 135 135 133 131 130 131 129 128 127 125 121 113 107 101 98 99 101 103 104 106 109 111 114 114 112 107 101 98 95 91 88 91 92 90 87 85 85 81 78 77
164 163 163 163 149 144 150 145 142 141 136 133 128 126 123 124 126 127 130 130 130 132 129 126 131 136 136 136 135 134 136 141 140 139 139 141 144 145 145 145 144 141 139 137 134 134 135 133 130 130 129 128 128 127 123 116 109 105 99 95 96 96 96 96 99 102 104 105 104 101 99 96 94 92 88 87 89 88 85 83 84 83 77 76 74
168 168 166 161 149 146 148 143 142 142 139 134 129 125 122 123 125 131 134 131 132 131 128 127 130 133 133 133 133 133 134 137 139 137 137 139 140 140 142 142 140 138 137 136 135 134 135 134 132 132 130 129 128 124 119 112 106 101 96 94 92 89 89 90 94 96 98 99 97 94 92 90 90 87 83 82 82 82 81 79 80 77 73 73 68
169 169 163 160 150 144 148 146 146 145 141 136 130 125 124 128 131 138 139 135 133 130 130 130 129 131 131 130 128 127 128 131 133 135 135 136 136 136 139 138 136 135 135 136 136 134 135 135 135 135 132 129 126 121 115 108 102 98 95 93 88 86 85 86 89 93 95 93 91 89 87 85 84 83 80 78 77 76 77 74 70 67 68 67 60
169 167 161 161 152 146 152 150 148 145 141 137 132 129 132 138 140 141 141 138 133 129 131 127 125 128 127 126 123 123 124 125 126 130 132 132 134 135 136 134 134 134 134 136 137 137 137 136 135 135 132 128 125 119 113 106 101 97 94 89 86 83 84 85 86 87 88 86 85 82 81 81 80 79 76 74 74 72 70 65 60 57 59 58 52
167 165 163 164 155 151 154 150 148 146 144 142 137 137 140 143 142 142 143 139 133 132 132 125 126 127 123 122 121 122 120 120 123 126 129 131 133 134 133 132 133 134 135 137 138 139 138 136 134 134 132 129 125 117 112 108 101 96 92 87 84 82 82 83 82 80 79 79 78 75 75 78 75 71 68 67 69 67 62 57 53 51 50 47 44
165 165 166 165 157 154 153 151 152 149 148 144 141 140 142 144 141 145 146 142 138 138 137 134 134 127 122 123 123 122 121 121 123 125 128 130 131 130 131 133 134 136 137 138 138 138 138 138 136 136 133 127 121 115 110 105 99 94 92 88 83 82 81 78 76 74 73 72 70 67 68 71 67 64 62 61 60 58 54 46 43 44 43 38 35
165 166 168 164 158 156 154 153 154 153 150 144 143 144 144 144 143 147 147 144 143 141 140 138 134 125 123 127 127 123 122 123 124 125 126 126 127 128 130 133 135 136 137 137 137 137 136 136 136 136 131 123 118 114 108 102 96 92 87 83 79 78 77 74 72 70 67 66 63 57 58 61 57 57 57 57 54 47 41 34 31 34 34 31 30
166 167 165 163 160 156 155 155 157 157 152 146 147 148 147 146 146 147 145 144 144 142 142 140 134 130 130 131 129 124 121 122 123 125 124 124 125 127 131 132 134 134 135 135 134 132 131 131 133 132 126 119 114 109 105 99 92 85 77 69 69 73 74 71 65 61 59 59 56 50 54 57 51 50 48 47 46 36 30 28 29 31 29 27 23
167 165 163 163 161 158 158 159 161 159 154 152 152 150 151 150 147 147 147 145 143 144 143 141 137 135 137 134 131 128 125 125 126 128 127 127 129 130 132 134 135 135 135 134 134 133 132 131 130 128 120 111 106 100 94 87 79 72 65 58 57 62 64 63 56 49 49 53 52 44 49 57 52 48 45 42 39 31 26 26 26 27 25 23 18
165 164 164 163 160 159 161 162 161 158 155 155 153 151 153 152 150 148 150 147 143 144 141 139 137 136 137 135 134 132 129 129 131 133 131 130 131 133 135 136 135 134 134 133 134 134 131 129 126 122 112 103 97 90 82 73 69 63 60 56 51 50 48 46 42 38 41 46 47 40 44 54 53 48 46 43 39 31 26 23 22 20 19 18 12
166 166 165 161 159 161 163 162 158 154 153 155 152 151 154 153 151 151 151 147 144 143 140 138 135 135 135 133 135 132 131 132 133 133 131 130 131 133 133 133 131 129 129 128 128 127 124 121 118 113 106 103 99 94 86 71 65 61 56 54 50 46 42 36 27 25 30 32 33 31 33 43 49 50 47 43 38 33 27 22 18 14 13 12 10
167 166 164 163 162 162 163 161 156 153 152 153 151 150 154 154 152 153 153 149 145 142 138 136 134 135 136 133 133 131 131 131 131 131 129 129 129 129 129 127 126 125 124 122 120 119 117 115 111 107 105 105 104 101 93 71 64 61 54 48 48 49 46 41 28 21 21 19 21 23 25 32 42 47 47 42 35 32 27 20 14 11 9 12 17
166 165 167 167 165 163 163 160 156 154 152 152 150 148 151 154 154 154 153 148 144 142 137 136 134 134 137 136 134 132 132 131 131 130 128 129 129 128 126 124 124 124 123 120 118 118 118 119 115 111 107 102 100 98 87 64 59 62 57 47 47 50 50 49 43 35 26 24 26 29 31 35 43 45 42 37 33 31 24 19 15 14 15 21 25
168 168 172 171 167 164 163 160 157 154 151 151 148 147 149 150 152 153 152 148 143 141 139 138 134 133 136 137 135 134 133 133 132 131 130 131 131 131 128 127 128 128 129 127 126 126 126 128 128 123 110 97 92 90 85 68 60 63 62 55 52 52 53 51 48 46 42 42 42 43 42 41 43 41 37 35 33 32 27 24 24 25 28 32 31
173 174 177 174 169 166 163 159 156 153 150 151 150 147 146 146 148 150 149 147 144 143 142 141 136 135 137 136 135 134 134 135 134 134 134 135 135 135 135 135 136 137 138 137 136 137 138 137 132 124 110 96 89 84 82 73 64 65 67 63 55 51 52 51 47 46 44 44 43 43 43 41 40 35 33 35 34 33 33 32 33 35 37 38 36
181 182 181 178 171 167 163 159 157 155 152 151 152 147 144 146 148 149 147 146 145 145 145 143 141 140 140 138 136 136 137 138 139 140 141 141 141 141 142 141 142 143 143 143 142 141 143 141 135 127 117 106 91 80 75 71 64 60 63 62 52 45 47 48 46 43 37 38 38 39 43 40 36 32 31 34 37 37 39 42 42 43 44 44 43
188 187 185 181 173 168 164 161 159 157 154 154 154 151 148 148 148 149 149 149 149 151 151 149 148 147 147 146 145 145 146 146 147 148 151 152 152 151 151 150 149 148 146 147 146 144 146 144 141 136 132 125 105 85 72 67 63 54 52 52 45 37 39 43 42 39 33 29 30 37 43 40 35 33 37 44 48 50 51 51 50 51 51 49 47
189 191 189 183 175 169 166 163 160 158 158 159 158 156 156 153 149 150 151 154 156 158 159 157 157 158 158 157 155 155 156 158 158 157 159 161 162 161 160 158 156 155 152 151 150 150 148 142 142 144 144 139 118 103 83 69 60 46 37 34 33 29 33 37 35 35 33 26 27 35 38 38 41 45 51 57 59 60 60 58 56 55 54 50 45
190 192 189 183 176 171 168 166 161 159 162 163 162 162 162 159 154 153 154 156 159 161 163 162 165 167 166 164 160 160 160 166 169 166 165 163 165 167 164 161 159 159 156 155 158 160 155 147 146 151 153 143 123 112 97 79 53 33 23 18 19 22 30 31 23 30 33 28 30 39 43 49 57 59 59 60 61 63 62 60 58 56 53 48 43
192 188 186 182 177 172 169 167 162 162 167 166 167 167 165 163 159 159 159 158 159 161 164 165 168 169 168 166 163 162 162 169 174 170 167 164 167 172 169 165 163 162 162 164 169 170 163 155 148 146 146 137 125 123 116 94 42 21 9 360 357 3 12 9 5 22 33 36 38 51 67 71 68 64 62 58 56 58 59 59 57 54 51 46 42
190 185 183 180 177 173 168 166 164 166 171 168 168 168 166 166 162 160 161 162 162 162 165 166 169 171 172 170 167 166 166 171 173 171 169 167 169 173 176 175 172 169 171 176 176 171 165 156 150 145 142 140 132 131 138 139 6 360 351 346 347 349 348 348 358 26 44 52 65 79 85 75 65 62 61 57 53 52 55 55 52 50 47 47 46
189 186 183 179 176 173 169 166 166 167 169 167 166 166 167 167 164 163 164 166 170 170 169 168 171 177 179 174 170 170 171 171 171 172 175 176 174 177 186 189 187 183 180 181 178 171 166 161 159 155 151 160 157 146 148 168 284 323 341 349 350 345 339 346 8 53 69 72 80 89 88 71 61 57 54 54 53 52 52 50 47 45 44 47 46
189 187 185 180 176 173 170 168 169 169 168 166 165 167 167 168 169 169 169 169 171 175 174 171 171 178 183 179 174 175 176 176 176 179 183 187 187 187 196 201 200 197 188 184 180 174 172 168 164 166 182 178 164 163 160 165 298 304 328 345 346 339 336 350 34 76 83 86 85 88 82 67 59 51 49 52 54 52 47 45 44 45 45 45 42
188 189 187 182 177 175 172 170 171 171 170 168 167 170 171 171 172 171 173 174 171 172 174 173 171 175 181 180 181 183 183 184 186 189 192 197 200 196 197 198 198 199 193 187 186 183 181 177 171 179 205 203 180 207 236 244 277 296 301 315 325 324 326 351 85 102 90 94 91 85 72 56 47 47 50 51 53 50 44 44 49 52 49 45 41
188 189 187 186 182 178 175 173 174 173 172 172 170 172 176 175 175 172 174 176 171 171 175 178 178 178 181 183 187 191 191 193 195 195 198 205 208 200 196 194 195 202 202 199 200 198 191 186 185 191 200 196 191 226 254 257 271 293 306 313 316 314 306 309 117 120 98 113 111 81 61 53 49 52 54 51 50 50 47 49 57 60 55 49 45
191 191 189 189 187 184 183 178 178 178 177 177 175 176 180 179 176 173 171 169 168 172 178 184 188 186 187 189 193 196 197 199 200 198 201 210 210 202 199 199 203 210 212 209 206 202 197 194 195 195 191 190 191 206 262 285 281 302 325 333 338 354 238 225 175 145 92 123 100 67 61 63 66 63 61 57 55 57 55 57 65 65 59 52 44
192 195 193 191 188 190 192 186 182 183 182 183 181 180 184 183 177 170 165 165 169 174 179 182 187 192 195 197 198 200 200 203 205 204 209 216 214 210 209 209 213 214 209 205 198 194 197 197 196 194 192 199 202 204 249 283 283 299 321 356 39 48 29 20 14 357 357 345 346 49 69 73 77 72 68 66 62 65 63 57 59 59 54 47 40
192 197 197 194 191 192 197 193 187 186 186 187 186 185 186 186 182 173 165 168 175 178 183 186 187 192 196 197 198 200 202 203 206 209 213 215 214 217 220 218 218 218 208 203 198 194 195 195 196 194 194 203 205 193 188 22 321 306 335 6 11 10 17 10 342 317 316 317 323 28 72 75 78 76 74 73 67 67 65 52 49 52 50 42 36
194 197 198 197 195 195 199 197 192 189 190 191 191 189 186 186 190 187 178 179 184 184 188 196 199 199 202 202 199 200 202 202 204 209 213 213 213 218 221 216 216 217 211 206 203 198 192 190 195 193 192 204 203 181 155 47 27 41 11 1 360 9 15 2 343 325 328 326 323 349 48 63 69 74 77 81 73 66 62 51 47 49 45 39 33
196 197 199 200 198 197 200 201 198 194 194 196 195 192 190 190 191 192 192 191 194 194 192 194 200 205 210 211 208 205 204 202 202 206 210 212 214 216 215 210 210 215 212 207 200 194 189 187 191 191 194 205 199 178 149 37 73 38 359 1 3 3 5 1 355 355 349 333 320 332 25 50 59 68 70 80 77 63 54 46 43 40 36 34 31
198 200 202 204 202 201 202 205 204 199 198 200 199 196 196 195 192 191 192 193 195 195 191 190 194 202 209 212 213 211 207 205 204 203 204 207 211 214 214 210 211 214 213 212 204 195 193 193 192 194 200 201 193 184 171 138 309 311 327 351 355 351 358 2 0 359 3 358 327 322 17 52 61 68 64 68 70 58 48 40 35 29 26 28 28
200 201 202 204 206 204 204 207 209 205 203 203 201 199 200 200 198 195 194 196 197 193 188 189 191 194 199 205 212 213 209 206 205 204 203 205 209 214 216 213 213 214 213 213 212 204 199 199 200 203 204 200 194 196 212 237 273 281 281 323 343 354 358 0 4 3 5 8 351 315 4 37 46 53 53 53 54 49 46 42 32 24 21 21 23
201 201 202 205 208 207 206 208 210 208 207 206 204 203 204 204 201 198 197 198 200 196 188 186 190 191 193 200 207 209 208 203 203 206 205 206 208 209 210 212 214 216 214 210 210 207 201 201 208 208 206 204 201 207 238 260 262 248 247 290 327 359 1 3 14 13 9 8 358 322 336 11 23 40 59 63 62 56 52 49 34 23 17 14 17
202 203 205 207 210 210 209 209 209 208 208 209 208 208 208 206 203 199 197 196 197 200 195 188 190 192 192 197 200 202 203 201 201 203 203 204 206 204 205 209 213 215 215 210 208 208 203 204 212 212 210 211 209 213 236 260 263 239 235 254 289 1 5 9 19 20 22 19 9 343 321 322 355 66 93 78 72 63 50 43 30 22 16 11 11
204 205 207 209 211 212 211 212 211 208 210 212 211 212 210 207 205 201 198 195 193 197 200 196 196 196 195 196 197 198 201 202 200 199 199 203 203 203 205 207 209 211 212 211 210 211 210 209 216 218 218 220 220 221 229 240 254 249 246 256 268 343 356 354 7 15 22 18 17 7 336 306 330 104 121 92 86 61 22 15 17 18 16 11 6
203 205 207 208 210 213 214 215 212 209 213 215 213 213 213 210 208 205 202 198 196 198 199 199 200 200 198 197 197 198 202 203 201 198 199 202 202 203 206 206 207 208 210 212 214 218 218 217 220 222 224 228 231 232 231 228 234 243 250 259 270 302 335 351 352 358 4 360 9 14 357 302 306 232 150 96 82 34 358 358 5 9 15 11 3
Height
1548 1549 1551 1552 1553 1554 1555 1555 1555 1556 1556 1558 1559 1559 1559 1559 1559 1560 1560 1561 1561 1561 1561 1561 1561 1561 1561 1561 1561 1561 1562 1562 1562 1562 1562 1562 1563 1563 1563 1564 1564 1565 1565 1565 1565 1566 1566 1566 1566 1567 1567 1567 1568 1568 1569 1570 1570 1570 1570 1570 1571 1571 1571 1571 1571 1572 1571 1571 1572 1572 1572 1572 1573 1573 1573 1573 1573 1573 1573 1573 1573 1573 1572 1572 1572
1548 1550 1552 1553 1555 1555 1556 1556 1556 1557 1557 1558 1559 1559 1560 1560 1560 1560 1561 1561 1561 1561 1561 1561 1561 1561 1562 1561 1561 1562 1562 1563 1563 1563 1563 1563 1563 1564 1564 1565 1565 1566 1566 1566 1567 1567 1567 1567 1568 1568 1568 1568 1569 1569 1570 1571 1571 1571 1571 1572 1572 1572 1572 1572 1573 1573 1573 1573 1573 1573 1574 1574 1574 1575 1574 1574 1574 1574 1574 1574 1574 1574 1574 1573 1573
1550 1551 1553 1555 1556 1556 1557 1558 1558 1558 1558 1559 1559 1560 1560 1561 1561 1561 1561 1561 1561 1561 1561 1561 1561 1561 1562 1562 1562 1562 1563 1563 1563 1563 1563 1564 1564 1565 1565 1566 1566 1567 1567 1567 1568 1568 1568 1568 1569 1569 1570 1570 1570 1571 1571 1572 1572 1573 1573 1573 1574 1574 1574 1574 1574 1574 1574 1575 1575 1575 1574 1575 1575 1576 1576 1576 1576 1576 1576 1576 1576 1575 1575 1575 1575
1551 1552 1554 1556 1557 1557 1558 1559 1559 1559 1559 1560 1561 1561 1561 1562 1561 1562 1562 1562 1562 1561 1561 1561 1561 1561 1562 1563 1563 1563 1563 1563 1564 1564 1564 1564 1565 1565 1566 1567 1567 1568 1568 1568 1569 1569 1569 1569 1570 1570 1571 1571 1571 1572 1572 1573 1574 1574 1575 1575 1575 1575 1575 1575 1576 1576 1576 1576 1576 1576 1576 1576 1576 1577 1577 1577 1577 1577 1577 1577 1577 1577 1576 1576 1576
1553 1554 1555 1556 1557 1558 1559 1560 1560 1560 1561 1561 1562 1562 1562 1562 1562 1563 1562 1562 1562 1562 1562 1562 1562 1562 1563 1563 1563 1563 1563 1563 1564 1564 1565 1565 1565 1566 1567 1568 1568 1569 1569 1570 1570 1570 1569 1570 1571 1571 1572 1571 1572 1573 1573 1574 1575 1576 1577 1577 1577 1577 1577 1577 1577 1577 1577 1577 1577 1577 1577 1577 1578 1578 1578 1578 1578 1578 1578 1578 1578 1578 1578 1577 1577
1554 1555 1556 1557 1558 1559 1560 1561 1561 1562 1562 1562 1563 1563 1563 1563 1563 1563 1563 1562 1562 1562 1562 1562 1562 1563 1563 1563 1563 1563 1563 1563 1564 1565 1565 1566 1566 1567 1568 1569 1569 1570 1570 1570 1571 1570 1570 1571 1571 1572 1573 1573 1573 1574 1574 1575 1576 1577 1578 1578 1578 1578 1578 1578 1578 1578 1578 1579 1579 1579 1578 1579 1579 1579 1579 1579 1579 1579 1579 1579 1579 1579 1579 1578 1578
1555 1556 1557 1558 1559 1560 1561 1562 1562 1563 1563 1563 1563 1564 1564 1564 1564 1564 1563 1563 1562 1562 1562 1562 1562 1563 1563 1563 1563 1563 1563 1564 1565 1565 1566 1567 1567 1568 1569 1569 1570 1570 1571 1571 1571 1571 1571 1572 1572 1573 1574 1575 1575 1576 1576 1576 1577 1578 1579 1579 1580 1580 1579 1579 1579 1580 1580 1580 1580 1580 1580 1580 1580 1580 1580 1580 1580 1580 1580 1580 1580 1580 1580 1580 1579
1556 1557 1558 1560 1561 1562 1562 1563 1563 1563 1563 1564 1564 1565 1565 1565 1565 1564 1564 1563 1563 1562 1562 1563 1563 1563 1564 1564 1563 1563 1564 1565 1565 1566 1567 1568 1568 1569 1569 1570 1571 1571 1571 1571 1572 1572 1573 1573 1574 1574 1575 1576 1577 1577 1578 1578 1578 1579 1580 1581 1581 1581 1581 1581 1581 1581 1581 1581 1581 1582 1581 1581 1581 1581 1581 1581 1581 1581 1581 1581 1580 1581 1581 1580 1580
1557 1558 1560 1561 1562 1563 1563 1564 1564 1564 1564 1565 1565 1565 1565 1565 1565 1565 1564 1564 1563 1563 1563 1563 1564 1564 1564 1563 1563 1564 1565 1565 1566 1566 1567 1568 1569 1570 1570 1571 1571 1571 1572 1572 1572 1573 1574 1574 1575 1576 1576 1577 1578 1579 1580 1580 1580 1581 1581 1582 1582 1582 1582 1582 1582 1582 1582 1583 1583 1583 1583 1583 1583 1583 1583 1583 1582 1582 1582 1582 1582 1582 1582 1582 1581
1558 1559 1561 1562 1563 1564 1564 1564 1565 1565 1566 1566 1566 1566 1566 1566 1566 1565 1565 1564 1564 1564 1564 1564 1564 1564 1564 1563 1564 1565 1565 1566 1566 1567 1568 1569 1570 1571 1571 1572 1572 1573 1573 1573 1573 1574 1575 1575 1576 1577 1577 1578 1580 1581 1581 1581 1581 1582 1582 1583 1583 1583 1583 1583 1583 1584 1584 1584 1584 1584 1584 1584 1584 1584 1584 1584 1584 1583 1583 1583 1583 1583 1583 1582 1582
1558 1560 1561 1562 1563 1564 1565 1566 1566 1566 1567 1567 1567 1567 1567 1567 1566 1566 1566 1565 1565 1565 1565 1565 1565 1565 1564 1564 1565 1566 1566 1567 1567 1568 1569 1570 1571 1571 1572 1573 1574 1574 1574 1574 1575 1575 1576 1576 1577 1578 1579 1579 1581 1582 1583 1583 1583 1583 1584 1584 1584 1584 1584 1585 1585 1585 1585 1585 1585 1585 1585 1585 1585 1585 1585 1585 1585 1585 1584 1584 1584 1584 1584 1583 1583
1559 1561 1562 1563 1564 1565 1566 1567 1567 1567 1567 1568 1568 1568 1568 1568 1567 1567 1567 1566 1566 1566 1566 1566 1566 1566 1566 1565 1566 1567 1568 1568 1569 1569 1570 1571 1572 1573 1573 1574 1575 1575 1575 1576 1576 1577 1577 1578 1579 1579 1580 1580 1582 1583 1584 1584 1584 1584 1585 1585 1585 1586 1586 1586 1586 1586 1586 1586 1586 1586 1586 1586 1586 1586 1586 1586 1586 1586 1585 1585 1585 1585 1585 1584 1584
1559 1561 1563 1564 1565 1566 1567 1567 1567 1568 1568 1569 1569 1569 1569 1568 1568 1568 1567 1567 1567 1566 1567 1567 1567 1567 1567 1567 1567 1568 1569 1569 1570 1571 1572 1573 1574 1574 1574 1575 1575 1576 1576 1577 1578 1578 1578 1579 1580 1581 1582 1582 1583 1584 1584 1585 1586 1586 1586 1586 1587 1587 1587 1587 1587 1587 1587 1587 1588 1588 1588 1587 1587 1587 1587 1587 1587 1587 1586 1586 1586 1586 1585 1585 1585
1560 1562 1563 1564 1566 1567 1567 1568 1568 1568 1569 1569 1569 1569 1569 1569 1569 1569 1568 1568 1567 1567 1568 1568 1569 1568 1568 1568 1569 1570 1570 1570 1571 1571 1573 1574 1574 1575 1576 1576 1576 1577 1577 1578 1579 1579 1580 1581 1582 1583 1584 1585 1585 1586 1586 1587 1587 1587 1588 1588 1588 1588 1588 1588 1589 1589 1589 1589 1589 1589 1589 1588 1588 1589 1588 1588 1588 1588 1587 1587 1587 1587 1586 1586 1585
1561 1562 1564 1565 1566 1568 1568 1568 1569 1569 1569 1570 1570 1570 1571 1570 1570 1570 1569 1569 1568 1568 1569 1570 1570 1570 1569 1569 1570 1571 1571 1571 1571 1572 1573 1574 1575 1576 1577 1577 1577 1578 1579 1580 1580 1581 1581 1583 1584 1585 1586 1587 1587 1588 1588 1588 1589 1589 1589 1589 1589 1590 1590 1590 1590 1590 1590 1590 1590 1590 1590 1590 1590 1590 1589 1589 1589 1588 1588 1588 1588 1588 1587 1587 1586
1562 1563 1565 1566 1567 1568 1568 1569 1570 1570 1570 1571 1571 1571 1572 1571 1571 1570 1570 1570 1570 1570 1570 1572 1572 1571 1571 1571 1571 1572 1572 1572 1572 1573 1574 1575 1576 1576 1578 1579 1579 1579 1580 1581 1582 1582 1583 1584 1585 1586 1587 1588 1588 1589 1589 1590 1590 1590 1590 1591 1591 1591 1591 1591 1591 1591 1591 1591 1591 1591 1591 1591 1591 1590 1590 1590 1590 1589 1589 1589 1589 1589 1588 1588 1587
1563 1564 1565 1566 1567 1568 1569 1570 1570 1571 1571 1572 1572 1573 1573 1572 1572 1572 1571 1571 1571 1571 1572 1573 1574 1573 1573 1572 1572 1573 1573 1573 1573 1574 1575 1576 1577 1577 1579 1580 1580 1581 1581 1582 1583 1584 1585 1586 1587 1588 1588 1589 1590 1590 1591 1591 1591 1592 1592 1592 1592 1592 1593 1593 1593 1593 1593 1592 1592 1592 1592 1592 1592 1591 1591 1591 1591 1590 1590 1590 1590 1589 1589 1589 1588
1564 1565 1566 1567 1567 1568 1569 1570 1571 1572 1572 1573 1574 1574 1574 1574 1573 1572 1573 1573 1573 1573 1574 1575 1575 1575 1575 1574 1574 1574 1575 1574 1574 1575 1576 1577 1578 1579 1580 1581 1581 1582 1583 1584 1585 1586 1587 1588 1589 1589 1590 1590 1591 1592 1592 1592 1593 1593 1593 1594 1594 1594 1594 1594 1594 1594 1594 1594 1594 1594 1593 1593 1593 1592 1592 1592 1592 1591 1591 1591 1591 1590 1590 1590 1589
1564 1566 1566 1567 1568 1569 1570 1571 1572 1572 1573 1574 1575 1575 1575 1574 1573 1573 1574 1574 1574 1575 1576 1576 1577 1576 1576 1575 1575 1575 1576 1576 1576 1577 1577 1579 1580 1581 1582 1582 1583 1584 1585 1586 1586 1587 1588 1589 1590 1591 1592 1592 1593 1593 1594 1594 1594 1595 1595 1595 1595 1596 1596 1596 1596 1596 1595 1595 1595 1595 1595 1594 1594 1593 1593 1593 1593 1593 1592 1592 1592 1591 1591 1591 1590
1565 1566 1567 1568 1568 1570 1571 1571 1572 1573 1574 1575 1575 1576 1575 1575 1575 1575 1575 1575 1576 1577 1577 1578 1578 1577 1577 1577 1577 1577 1577 1577 1578 1579 1579 1581 1581 1582 1583 1583 1584 1585 1586 1587 1588 1589 1590 1591 1592 1592 1593 1594 1595 1595 1595 1596 1596 1596 1597 1597 1597 1597 1597 1597 1597 1597 1597 1596 1596 1596 1596 1595 1595 1595 1594 1594 1594 1594 1593 1593 1593 1592 1592 1592 1591
1565 1566 1567 1568 1569 1570 1571 1572 1573 1574 1575 1575 1576 1576 1576 1576 1576 1576 1576 1577 1577 1578 1578 1578 1579 1578 1578 1578 1578 1578 1578 1579 1580 1581 1582 1582 1583 1583 1584 1585 1586 1587 1588 1589 1590 1590 1591 1592 1593 1594 1595 1596 1596 1597 1597 1597 1598 1598 1598 1598 1598 1598 1598 1598 1598 1598 1598 1598 1598 1597 1597 1596 1596 1596 1596 1596 1595 1595 1594 1594 1594 1593 1593 1593 1592
1565 1566 1567 1568 1569 1571 1571 1572 1573 1574 1575 1576 1577 1577 1577 1576 1577 1577 1577 1578 1579 1579 1579 1580 1580 1580 1579 1580 1580 1580 1580 1581 1582 1582 1583 1584 1585 1585 1586 1587 1588 1589 1590 1591 1591 1592 1593 1594 1595 1596 1596 1597 1598 1598 1598 1599 1599 1599 1599 1599 1599 1599 1599 1599 1599 1599 1599 1599 1599 1598 1598 1597 1597 1597 1597 1597 1596 1596 1596 1595 1594 1594 1594 1593 1593
1564 1566 1567 1568 1570 1571 1572 1573 1574 1575 1576 1577 1578 1578 1577 1577 1578 1578 1578 1579 1580 1580 1581 1581 1582 1582 1581 1582 1582 1582 1582 1583 1584 1584 1585 1586 1587 1588 1588 1589 1590 1591 1592 1592 1593 1594 1595 1595 1596 1597 1598 1598 1599 1599 1600 1600 1601 1601 1601 1601 1601 1600 1601 1601 1601 1600 1600 1600 1600 1599 1599 1598 1598 1598 1598 1598 1597 1597 1596 1596 1595 1595 1594 1594 1593
1565 1566 1567 1569 1570 1571 1572 1573 1575 1575 1577 1578 1578 1578 1578 1578 1579 1579 1580 1580 1581 1581 1582 1582 1583 1583 1583 1583 1583 1584 1584 1585 1586 1586 1587 1588 1589 1590 1591 1591 1592 1593 1593 1594 1595 1596 1596 1597 1597 1598 1599 1600 1600 1601 1601 1601 1602 1602 1602 1602 1602 1602 1602 1602 1602 1601 1601 1601 1601 1600 1600 1600 1599 1599 1599 1598 1598 1598 1597 1597 1596 1596 1595 1594 1594
1565 1566 1568 1569 1570 1571 1573 1574 1575 1576 1577 1578 1579 1579 1579 1580 1580 1581 1581 1581 1582 1582 1583 1583 1584 1584 1585 1585 1585 1586 1586 1587 1587 1588 1589 1590 1590 1591 1592 1593 1594 1594 1595 1596 1596 1597 1598 1598 1599 1600 1601 1601 1602 1602 1602 1602 1603 1603 1603 1603 1603 1603 1603 1603 1603 1602 1602 1602 1602 1601 1601 1600 1600 1600 1600 1599 1599 1598 1598 1597 1597 1596 1595 1595 1594
1566 1567 1568 1569 1571 1572 1573 1574 1575 1576 1577 1579 1579 1580 1580 1581 1581 1582 1582 1583 1583 1584 1584 1585 1585 1586 1586 1587 1587 1588 1588 1589 1590 1591 1591 1592 1593 1593 1594 1595 1596 1596 1597 1598 1598 1599 1600 1601 1601 1602 1602 1603 1603 1603 1603 1604 1604 1604 1604 1604 1604 1604 1604 1604 1604 1603 1603 1603 1603 1602 1602 1601 1601 1600 1600 1600 1599 1599 1598 1598 1597 1596 1596 1595 1594
1566 1567 1569 1570 1571 1572 1574 1575 1576 1577 1578 1579 1580 1581 1581 1582 1582 1583 1584 1584 1585 1585 1586 1586 1587 1587 1588 1588 1589 1589 1590 1591 1592 1593 1593 1594 1595 1596 1596 1597 1598 1599 1599 1600 1601 1601 1602 1603 1603 1603 1604 1604 1605 1605 1605 1605 1605 1605 1605 1605 1605 1605 1605 1605 1604 1604 1604 1604 1604 1603 1603 1602 1602 1601 1601 1601 1600 1599 1599 1598 1597 1597 1596 1595 1595
1567 1568 1569 1570 1572 1573 1574 1575 1576 1577 1578 1579 1580 1581 1582 1583 1583 1584 1585 1586 1586 1587 1587 1587 1588 1589 1590 1590 1591 1591 1592 1593 1594 1594 1595 1596 1597 1598 1599 1599 1600 1601 1602 1602 1603 1603 1604 1604 1605 1605 1605 1606 1606 1606 1606 1606 1606 1606 1606 1606 1606 1606 1606 1605 1605 1605 1605 1605 1604 1604 1604 1603 1603 1602 1602 1601 1601 1600 1599 1599 1598 1597 1597 1596 1595
1567 1568 1569 1571 1572 1573 1574 1576 1577 1578 1579 1580 1581 1582 1583 1584 1584 1585 1586 1587 1587 1588 1589 1589 1589 1590 1591 1592 1592 1593 1594 1595 1596 1596 1597 1598 1599 1600 1601 1601 1602 1603 1604 1604 1605 1605 1606 1606 1606 1606 1607 1607 1607 1607 1608 1608 1607 1607 1607 1607 1607 1607 1607 1607 1606 1606 1606 1606 1605 1605 1605 1604 1604 1603 1603 1602 1601 1601 1600 1599 1598 1598 1597 1596 1596
1568 1569 1570 1571 1573 1574 1575 1576 1577 1578 1580 1580 1581 1583 1584 1585 1585 1586 1586 1587 1588 1589 1590 1590 1591 1592 1593 1594 1594 1595 1596 1597 1598 1598 1599 1600 1601 1602 1602 1603 1604 1605 1605 1606 1606 1607 1607 1607 1607 1608 1608 1608 1609 1609 1609 1609 1609 1608 1608 1608 1609 1608 1608 1608 1608 1607 1607 1607 1606 1606 1606 1605 1605 1604 1604 1603 1602 1601 1600 1600 1599 1598 1598 1597 1596
1569 1570 1571 1572 1573 1574 1575 1577 1578 1579 1580 1581 1582 1583 1585 1586 1586 1586 1587 1588 1589 1590 1591 1592 1593 1594 1594 1595 1596 1597 1597 1598 1599 1600 1601 1602 1603 1603 1604 1604 1605 1606 1607 1607 1607 1608 1608 1608 1609 1609 1609 1609 1610 1610 1609 1610 1609 1609 1609 1609 1610 1610 1609 1609 1609 1608 1608 1608 1607 1607 1606 1606 1605 1605 1604 1604 1603 1602 1601 1601 1600 1599 1599 1598 1598
1569 1570 1571 1573 1574 1575 1576 1577 1578 1580 1581 1582 1583 1584 1585 1586 1587 1587 1588 1589 1590 1591 1592 1594 1594 1595 1596 1596 1597 1598 1599 1600 1601 1601 1602 1603 1604 1605 1605 1606 1606 1607 1608 1608 1609 1609 1609 1609 1610 1610 1610 1610 1610 1610 1610 1610 1610 1610 1611 1611 1611 1611 1611 1610 1610 1609 1609 1609 1608 1608 1607 1607 1606 1606 1605 1604 1603 1603 1602 1602 1601 1600 1600 1599 1599
1569 1571 1572 1573 1575 1575 1576 1577 1579 1580 1581 1583 1584 1585 1586 1587 1588 1589 1589 1590 1591 1592 1593 1594 1595 1596 1597 1598 1599 1599 1600 1601 1602 1603 1603 1604 1605 1606 1606 1606 1607 1608 1608 1609 1610 1610 1610 1610 1610 1610 1610 1611 1611 1611 1611 1611 1611 1611 1611 1611 1611 1611 1611 1611 1611 1610 1610 1609 1609 1609 1608 1607 1607 1606 1606 1605 1604 1604 1603 1603 1602 1602 1601 1600 1600
1570 1571 1573 1574 1575 1576 1577 1578 1579 1581 1582 1583 1585 1586 1587 1588 1589 1590 1590 1591 1592 1593 1594 1595 1596 1597 1598 1599 1599 1600 1601 1602 1603 1604 1604 1605 1606 1607 1607 1607 1608 1609 1609 1610 1610 1611 1611 1611 1611 1611 1611 1611 1611 1611 1611 1611 1612 1612 1612 1612 1612 1612 1612 1612 1611 1611 1611 1610 1610 1609 1609 1608 1608 1607 1607 1606 1605 1605 1604 1604 1603 1603 1602 1602 1601
1570 1571 1573 1574 1575 1576 1577 1579 1580 1581 1582 1583 1585 1586 1587 1588 1589 1591 1592 1592 1593 1594 1595 1596 1597 1598 1599 1599 1600 1601 1602 1603 1604 1605 1605 1606 1607 1608 1608 1609 1609 1609 1610 1611 1611 1611 1611 1612 1612 1612 1612 1612 1612 1612 1612 1612 1613 1613 1613 1613 1613 1613 1612 1612 1612 1612 1611 1611 1610 1610 1610 1609 1609 1608 1608 1607 1607 1606 1606 1605 1604 1604 1603 1603 1602
1571 1572 1573 1574 1576 1577 1578 1579 1580 1581 1583 1584 1585 1587 1588 1589 1590 1592 1593 1593 1594 1595 1596 1597 1598 1599 1600 1600 1601 1602 1603 1604 1605 1606 1606 1607 1608 1609 1609 1610 1610 1610 1611 1611 1612 1612 1612 1612 1613 1613 1613 1613 1613 1613 1613 1613 1613 1613 1613 1613 1613 1613 1613 1613 1612 1612 1612 1611 1611 1611 1611 1610 1610 1609 1609 1608 1608 1607 1607 1606 1606 1605 1605 1604 1603
1571 1572 1574 1575 1576 1577 1579 1580 1581 1582 1583 1585 1586 1587 1588 1590 1591 1592 1593 1594 1595 1596 1597 1598 1598 1599 1600 1601 1602 1602 1603 1604 1605 1606 1607 1608 1608 1609 1610 1610 1611 1611 1611 1612 1612 1613 1613 1613 1613 1614 1614 1614 1614 1614 1614 1614 1614 1614 1614 1614 1614 1613 1613 1613 1613 1613 1612 1612 1612 1612 1611 1611 1610 1610 1610 1609 1609 1608 1608 1607 1607 1606 1606 1605 1605
1571 1573 1574 1575 1576 1578 1579 1581 1582 1583 1584 1585 1587 1588 1589 1590 1591 1593 1594 1595 1596 1597 1598 1598 1599 1600 1601 1602 1603 1603 1604 1605 1606 1607 1607 1608 1609 1609 1610 1611 1611 1612 1612 1612 1613 1614 1614 1614 1614 1614 1615 1615 1615 1615 1615 1614 1615 1615 1615 1615 1614 1614 1614 1614 1613 1613 1613 1613 1613 1613 1612 1612 1611 1611 1611 1610 1610 1609 1609 1608 1608 1607 1607 1606 1606
1571 1573 1575 1576 1577 1578 1580 1581 1583 1584 1585 1586 1587 1589 1590 1591 1592 1593 1594 1595 1596 1597 1598 1599 1600 1601 1601 1602 1603 1604 1605 1606 1606 1607 1608 1608 1609 1610 1610 1611 1611 1612 1612 1613 1614 1614 1615 1615 1615 1615 1615 1615 1616 1616 1615 1615 1615 1615 1615 1615 1615 1615 1614 1614 1614 1614 1613 1613 1613 1613 1613 1612 1612 1612 1611 1611 1611 1610 1610 1609 1609 1608 1608 1608 1607
1571 1573 1575 1576 1577 1578 1580 1582 1583 1584 1585 1586 1587 1588 1589 1591 1592 1593 1594 1595 1596 1597 1598 1599 1600 1601 1602 1603 1604 1605 1605 1606 1607 1608 1608 1609 1609 1610 1610 1611 1612 1612 1613 1614 1614 1615 1615 1616 1616 1616 1616 1616 1616 1616 1616 1616 1616 1616 1616 1616 1616 1615 1615 1615 1614 1614 1614 1614 1614 1613 1613 1613 1613 1612 1612 1612 1612 1611 1611 1610 1610 1609 1609 1609 1608
1570 1572 1574 1575 1577 1578 1580 1581 1583 1584 1585 1586 1587 1588 1589 1590 1591 1592 1593 1594 1596 1597 1598 1599 1600 1601 1602 1603 1604 1605 1606 1607 1607 1608 1609 1609 1610 1610 1611 1611 1612 1613 1613 1614 1614 1615 1616 1616 1616 1617 1617 1617 1617 1617 1617 1617 1616 1616 1616 1616 1616 1616 1616 1615 1615 1615 1614 1614 1614 1614 1614 1613 1613 1613 1613 1613 1612 1612 1612 1611 1611 1610 1610 1610 1609
1569 1571 1573 1575 1577 1578 1580 1581 1583 1584 1585 1586 1587 1588 1589 1589 1591 1592 1593 1594 1596 1597 1598 1599 1600 1601 1602 1603 1604 1605 1606 1607 1607 1608 1609 1609 1610 1611 1611 1612 1612 1613 1614 1614 1615 1615 1616 1617 1617 1617 1618 1618 1618 1618 1617 1617 1617 1617 1617 1617 1617 1617 1617 1616 1616 1616 1615 1615 1614 1614 1614 1614 1614 1614 1614 1613 1613 1613 1613 1613 1612 1611 1611 1611 1610
1568 1570 1573 1575 1576 1578 1580 1581 1582 1583 1585 1586 1587 1588 1589 1590 1591 1592 1594 1595 1596 1597 1598 1599 1600 1601 1602 1603 1603 1604 1605 1606 1607 1608 1609 1610 1610 1611 1612 1612 1613 1613 1614 1615 1615 1616 1616 1617 1617 1618 1618 1618 1618 1618 1618 1618 1618 1618 1618 1618 1618 1617 1617 1617 1617 1616 1616 1616 1615 1615 1615 1615 1614 1614 1614 1614 1614 1614 1614 1614 1613 1612 1612 1612 1611
1568 1569 1572 1574 1575 1577 1579 1581 1582 1583 1585 1586 1587 1588 1589 1590 1592 1593 1594 1595 1596 1597 1598 1599 1599 1600 1601 1602 1603 1604 1605 1606 1607 1608 1609 1610 1610 1611 1612 1612 1613 1614 1614 1615 1616 1616 1617 1617 1618 1618 1618 1619 1619 1619 1619 1619 1619 1619 1619 1619 1618 1618 1618 1618 1617 1616 1616 1616 1616 1616 1615 1615 1615 1615 1615 1615 1615 1615 1615 1614 1614 1613 1613 1612 1612
1567 1568 1570 1572 1574 1576 1579 1580 1582 1583 1585 1586 1587 1589 1590 1591 1592 1593 1594 1595 1595 1596 1597 1598 1598 1599 1600 1601 1602 1603 1604 1605 1606 1607 1608 1609 1610 1610 1611 1612 1613 1614 1614 1615 1615 1616 1617 1617 1618 1618 1619 1619 1619 1619 1619 1619 1619 1619 1620 1620 1620 1619 1619 1618 1617 1617 1617 1616 1616 1616 1616 1616 1616 1616 1616 1616 1616 1616 1615 1615 1615 1614 1614 1613 1613
1565 1567 1570 1571 1573 1576 1578 1580 1581 1583 1584 1586 1587 1589 1590 1590 1591 1591 1592 1593 1594 1595 1596 1597 1598 1599 1600 1601 1602 1602 1603 1604 1606 1607 1608 1608 1609 1610 1611 1612 1613 1613 1614 1615 1615 1616 1617 1617 1618 1618 1619 1619 1619 1619 1619 1620 1620 1620 1620 1621 1621 1621 1620 1619 1618 1617 1617 1617 1617 1616 1616 1616 1616 1616 1617 1617 1616 1616 1616 1616 1616 1615 1615 1614 1614
1564 1567 1569 1571 1573 1575 1577 1579 1581 1582 1584 1585 1587 1588 1589 1590 1591 1591 1592 1593 1594 1595 1597 1598 1599 1599 1600 1600 1601 1602 1603 1604 1605 1606 1607 1608 1609 1609 1610 1611 1612 1613 1614 1614 1615 1616 1616 1617 1618 1618 1619 1619 1619 1619 1620 1620 1620 1621 1621 1621 1621 1621 1621 1620 1619 1618 1617 1617 1617 1617 1617 1617 1617 1617 1617 1617 1617 1617 1617 1616 1616 1616 1616 1615 1614
1564 1566 1568 1570 1572 1574 1576 1578 1580 1582 1583 1585 1586 1588 1589 1590 1591 1592 1593 1594 1595 1596 1597 1598 1599 1599 1600 1600 1601 1602 1602 1603 1604 1605 1606 1607 1608 1609 1610 1611 1612 1613 1613 1614 1615 1615 1616 1617 1617 1618 1618 1619 1619 1619 1620 1620 1620 1621 1621 1621 1622 1622 1621 1621 1620 1619 1618 1618 1617 1617 1617 1617 1617 1617 1617 1617 1617 1617 1617 1617 1617 1617 1617 1616 1615
1563 1565 1567 1569 1571 1573 1576 1578 1580 1582 1583 1584 1586 1587 1589 1590 1591 1591 1592 1594 1595 1596 1597 1598 1598 1599 1599 1600 1601 1601 1602 1603 1604 1605 1605 1606 1607 1608 1609 1610 1611 1612 1613 1614 1614 1615 1615 1616 1617 1618 1618 1619 1619 1619 1620 1620 1621 1621 1621 1622 1622 1622 1621 1621 1620 1620 1619 1618 1618 1618 1618 1618 1618 1617 1617 1617 1617 1618 1618 1617 1617 1617 1617 1617 1616
1562 1564 1566 1569 1571 1573 1575 1577 1579 1581 1583 1584 1585 1587 1588 1589 1590 1591 1592 1594 1595 1596 1597 1597 1598 1599 1599 1600 1600 1601 1602 1603 1603 1604 1605 1606 1606 1607 1608 1609 1610 1611 1612 1613 1614 1614 1615 1616 1617 1617 1618 1618 1619 1619 1619 1620 1621 1621 1621 1621 1621 1621 1621 1621 1620 1620 1619 1619 1619 1618 1618 1618 1618 1618 1618 1618 1618 1618 1618 1618 1618 1618 1618 1617 1617
1562 1564 1566 1568 1570 1572 1574 1576 1578 1580 1582 1584 1585 1586 1587 1588 1589 1591 1592 1593 1594 1595 1596 1597 1598 1598 1599 1599 1600 1601 1602 1603 1603 1604 1604 1605 1606 1607 1608 1609 1610 1611 1611 1612 1613 1614 1615 1615 1616 1617 1617 1618 1618 1618 1619 1620 1620 1621 1621 1621 1621 1621 1621 1621 1620 1620 1620 1619 1619 1619 1618 1618 1618 1618 1618 1618 1618 1618 1618 1619 1619 1619 1619 1618 1618